Weather History for Shannon, Ireland

Change the Weather History Date:

Wednesday, February 23, 2011

  Actual Average Record
Temperature  
Mean Temperature 52 °F -  
Max Temperature 56 °F 50 °F 55 °F (2011)
Min Temperature 48 °F 38 °F 26 °F (2004)
Degree Days  
Heating Degree Days 13    
Growing Degree Days 2 (Base 50)    
Moisture  
Dew Point 49 °F    
Average Humidity 91    
Maximum Humidity 100    
Minimum Humidity 77    
Precipitation  
Precipitation 0.02 in 0.09 in - ()
Sea Level Pressure  
Sea Level Pressure 29.85 in    
Wind  
Wind Speed 9 mph ()    
Max Wind Speed 24 mph    
Max Gust Speed -    
Visibility 6.6 miles    
Events Rain    
Averages and records for this station are not official NWS values.
T = Trace of Precipitation, MM = Missing Value Source: Averaged Metar Reports

Daily Weather History Graph

Daily Weather History Graph

Search for Another Location

Airport:

Trip Planner

Search our weather history database for the weather conditions in past years. The results will help you decide how hot, cold, wet, or windy it might be!

Date:

Astronomy

Feb. 23, 2011 Rise Set
Actual Time 7:36 AM GMT 6:02 PM GMT
Civil Twilight 7:01 AM GMT 6:37 PM GMT
Nautical Twilight 6:21 AM GMT 7:17 PM GMT
Astronomical Twilight 5:42 AM GMT 7:57 PM GMT
Moon 12:30 AM GMT 9:12 AM GMT
Length of Visible Light 11h 35m
Length of Day
10h 26m
Waning Gibbous, 66% of the Moon is Illuminated
Feb 23
Waning Gibbous
Feb 24
Last Quarter
Mar 4
New
Mar 12
First Quarter
Mar 19
Full

Hourly Weather History & Observations

Time (GMT) Temp. Dew Point Humidity Pressure Visibility Wind Dir Wind Speed Gust Speed Precip Events Conditions
12:00 AM 50 °F 50 °F 100% 29.85 in 12 mi SE 6.7 mph - -   Partly Cloudy
12:00 AM 50.0 °F 50.0 °F 100% 29.83 in 6.2 mi SE 6.9 mph - N/A   Mostly Cloudy
12:30 AM 50.0 °F 50.0 °F 100% 29.86 in 6.2 mi SE 6.9 mph - N/A   Mostly Cloudy
1:00 AM 50.0 °F 50.0 °F 100% 29.83 in 6.2 mi SSE 6.9 mph - N/A   Mostly Cloudy
1:30 AM 50.0 °F 50.0 °F 100% 29.83 in 6.2 mi SE 6.9 mph - N/A   Mostly Cloudy
2:00 AM 50.0 °F 50.0 °F 100% 29.83 in 6.2 mi ESE 5.8 mph - N/A   Mostly Cloudy
2:30 AM 50.0 °F 50.0 °F 100% 29.83 in 6.2 mi SE 6.9 mph - N/A   Mostly Cloudy
3:00 AM 50.0 °F 50.0 °F 100% 29.83 in 6.2 mi ESE 6.9 mph - N/A   Mostly Cloudy
3:30 AM 50.0 °F 50.0 °F 100% 29.80 in 6.2 mi SE 8.1 mph - N/A   Mostly Cloudy
4:00 AM 51.8 °F 50.0 °F 94% 29.80 in 6.2 mi ESE 8.1 mph - N/A   Mostly Cloudy
4:30 AM 50.0 °F 50.0 °F 100% 29.80 in 6.2 mi ESE 6.9 mph - N/A   Mostly Cloudy
5:00 AM 51.8 °F 50.0 °F 94% 29.80 in 6.2 mi SSE 11.5 mph - N/A   Mostly Cloudy
5:30 AM 51.8 °F 50.0 °F 94% 29.80 in 6.2 mi South 10.4 mph - N/A   Mostly Cloudy
6:00 AM 50 °F 49 °F 96% 29.81 in 12 mi SE 6.7 mph - -   Partly Cloudy
6:00 AM 50.0 °F 50.0 °F 100% 29.80 in 6.2 mi SE 5.8 mph - N/A   Mostly Cloudy
6:30 AM 51.8 °F 50.0 °F 94% 29.80 in 6.2 mi South 9.2 mph - N/A   Mostly Cloudy
7:00 AM 51.8 °F 50.0 °F 94% 29.80 in 6.2 mi SSW 17.3 mph - N/A   Light Drizzle
7:30 AM 51.8 °F 50.0 °F 94% 29.77 in 6.2 mi SSW 16.1 mph - N/A   Mostly Cloudy
8:00 AM 51.8 °F 50.0 °F 94% 29.77 in 6.2 mi South 17.3 mph - N/A   Mostly Cloudy
8:30 AM 51.8 °F 48.2 °F 88% 29.77 in 6.2 mi South 15.0 mph - N/A   Mostly Cloudy
9:00 AM 51.8 °F 48.2 °F 88% 29.77 in 6.2 mi SSE 11.5 mph - N/A   Overcast
9:30 AM 51.8 °F 48.2 °F 88% 29.80 in 6.2 mi South 10.4 mph - N/A   Overcast
10:00 AM 51.8 °F 50.0 °F 94% 29.80 in 2.2 mi South 10.4 mph - N/A Rain Light Rain
10:30 AM 51.8 °F 50.0 °F 94% 29.80 in 4.3 mi South 10.4 mph - N/A Rain Light Rain
11:00 AM 51.8 °F 51.8 °F 100% 29.80 in 6.2 mi South 11.5 mph - N/A   Overcast
11:30 AM 53.6 °F 51.8 °F 94% 29.80 in 6.2 mi SSW 10.4 mph - N/A   Mostly Cloudy
12:00 PM 54 °F 51 °F 88% 29.83 in 12 mi SW 15.7 mph - -   Partly Cloudy
12:00 PM 53.6 °F 51.8 °F 94% 29.83 in 6.2 mi SW 15.0 mph - N/A   Mostly Cloudy
12:30 PM 55.4 °F 51.8 °F 88% 29.83 in 6.2 mi SW 15.0 mph - N/A   Mostly Cloudy
1:00 PM 55.4 °F 51.8 °F 88% 29.83 in 6.2 mi SW 15.0 mph - N/A   Mostly Cloudy
1:30 PM 55.4 °F 50.0 °F 82% 29.83 in 6.2 mi WSW 23.0 mph - N/A   Scattered Clouds
2:00 PM 55.4 °F 50.0 °F 82% 29.83 in 6.2 mi WSW 24.2 mph - N/A   Scattered Clouds
2:30 PM 55.4 °F 48.2 °F 77% 29.86 in 6.2 mi SW 20.7 mph - N/A   Scattered Clouds
3:00 PM 55.4 °F 48.2 °F 77% 29.86 in 6.2 mi WSW 20.7 mph - N/A   Scattered Clouds
3:30 PM 53.6 °F 48.2 °F 82% 29.86 in 6.2 mi SW 11.5 mph - N/A   Mostly Cloudy
4:00 PM 53.6 °F 48.2 °F 82% 29.86 in 6.2 mi WSW 20.7 mph - N/A   Mostly Cloudy
4:30 PM 53.6 °F 46.4 °F 77% 29.86 in 6.2 mi SW 18.4 mph - N/A   Mostly Cloudy
5:00 PM 51.8 °F 46.4 °F 82% 29.89 in 6.2 mi SW 12.7 mph - N/A   Mostly Cloudy
5:30 PM 51.8 °F 46.4 °F 82% 29.89 in 6.2 mi SW 9.2 mph - N/A   Mostly Cloudy
6:00 PM 51 °F 47 °F 81% 29.91 in 12 mi SSW 8.9 mph - -   Partly Cloudy
6:00 PM 51.8 °F 46.4 °F 82% 29.89 in 6.2 mi SSW 8.1 mph - N/A   Mostly Cloudy
6:30 PM 50.0 °F 46.4 °F 87% 29.89 in 6.2 mi South 9.2 mph - N/A   Mostly Cloudy
7:00 PM 50.0 °F 46.4 °F 87% 29.92 in 6.2 mi South 6.9 mph - N/A   Mostly Cloudy
7:30 PM 50.0 °F 46.4 °F 87% 29.89 in - South 8.1 mph - N/A   Clear
8:00 PM 50.0 °F 46.4 °F 87% 29.92 in - South 5.8 mph - N/A   Clear
8:30 PM 50.0 °F 46.4 °F 87% 29.92 in - SSE 8.1 mph - N/A   Clear
9:00 PM 48.2 °F 44.6 °F 87% 29.92 in - SSE 9.2 mph - N/A   Clear
9:30 PM 48.2 °F 46.4 °F 93% 29.95 in - SSE 8.1 mph - N/A   Clear
10:00 PM 50.0 °F 46.4 °F 87% 29.95 in - South 9.2 mph - N/A   Clear
10:30 PM 50.0 °F 46.4 °F 87% 29.95 in - South 11.5 mph - N/A   Clear
11:00 PM 50.0 °F 46.4 °F 87% 29.95 in - South 15.0 mph - N/A   Clear
11:30 PM 48.2 °F 46.4 °F 93% 29.95 in - SSE 11.5 mph - N/A   Clear